Showing default

MANDRAKE 2 ABLE, 48907

Orbit data source: Space-Track

MANDRAKE 2 ABLE, 48907 is an American payload satellite in SSO that was launched on Wed, 30 Jun 2021 UTC via an FALCON 9 launch vehicle from the Air Force Eastern Test Range (AFETR). Payload-class satellites include a variety of spacecraft equipped with specific instruments for various scientific and technological missions. These include communications satellites like Starlink; space stations such as the ISS; scientific satellites like the Hubble; Earth observation satellites from companies like Planet Labs, Umbra, and HawkEye 360; GPS; miniature CubeSats for education and research; and military/defense satellites.

Loading next visibility...
Identifier
48907, 2021-059AE
Orbit
SSO
Country
Flag of USUS
Related business
Manufacturer
Astro Digital
Mission
Operational Defense Communications
Bus & Motor
CORVUS-XL, Unknown motor
Mass
23 kg wet, 23 kg dry
Launch date (UTC)
2021-06-30 (4 years ago)
Launch vehicle
FALCON 9
Launch site
Air Force Eastern Test Range (AFETR)
Object type
Payload
Rocket body
Debris
Shape & HBR
Box + 1 Pan, 0.3 m
Radar Cross Section
0.375 m², Medium (>0.1 m² and < 1m²)

Expand to show TLE details & history
Last TLE update: 1 day ago

TLE from 1 day ago
0 MANDRAKE 2 ABLE
1 48907U 21059AE  25260.99168929  .00014610  00000-0  34096-3 0  9990
2 48907  97.6978  67.7008 0004748 266.7232  93.3471 15.42318749234993
Epoch: 2025-09-17T23:48Z
TLE epoch observation values (Epoch: 2025-09-17T23:48:01.954Z)
Latitude
-0.00005°
Longitude
73.53297°
Altitude
442.57 km
Speed
7.646 km/s
True Right ascension
04h 30m 48s
True Declination
0° 00' 00"
Sunlit
Object was in daylight at epoch
Visualization orbit readout
Latitude
Unknown
Longitude
Unknown
Altitude
Unknown
Speed
Unknown
Apparent Right ascension
Unknown
Apparent Declination
Unknown
Sunlit
N/A
Visualization observer readout
Local Sidereal Time
19:17:50
Azimuth
Unknown
Elevation
Unknown
Doppler factor
Unknown
Orbital elements
Apogee altitude
439.452 km
Perigee altitude
432.981 km
Semi-major axis
6,814.354 km
Eccentricity
0.00047
Inclination
97.6978°
RAAN
67.7008°
Arg. of periapsis
266.7232°
True anomaly
93.40141°
Mean anomaly
93.3471°
Eccentric anomaly
93.37426°
Mean motion
3.85839 °/min
Orbital period
93.3 mins
BSTAR
0.00034096
Loading maneuver chart data...
Computing Atmospheric mass density...
Loading historical data...
Loading historical data...
Loading historical data...
Loading historical data...
Loading historical data...
Loading historical data...
Loading historical data...

Documentation

Showing up to 5 results
|